Miscellaneous Local Product
Issued by NWS Hastings, NE

Home | Current Version | Previous Version | Text Only | Print | Product List | Glossary Off
Versions: 1 2 3 4 5 6 7 8 9 10 11 12 13 14 15 16 17 18 19 20 21 22 23 24 25 26 27 28 29 30 31 32 33 34 35 36 37 38 39 40 41 42 43 44 45 46 47 48 49 50

000
AXUS43 KGID 031002
MISGRI

GID CWA HOURLY WEATHER ROUNDUP
NATIONAL WEATHER SERVICE HASTINGS NE
500 AM CDT MON AUG 03 2015

NOTE: "FAIR" INDICATES FEW OR NO CLOUDS BELOW 12,000 FEET WITH NO
SIGNIFICANT WEATHER AND/OR OBSTRUCTIONS TO VISIBILITY.

...SOUTH CENTRAL NEBRASKA...

CITY           SKY/WX    TMP DP  RH WIND       PRES   REMARKS
GRAND ISLAND   PTCLDY    65  63  93 N5        29.97R
HASTINGS       CLEAR     67  65  93 NE6       29.95S
KEARNEY        PTCLDY    64  61  88 NE6       29.96S
ORD            PTCLDY    62  59  90 N3        29.97F
YORK           PTCLDY    68  66  94 NE8       29.95R
AURORA         PTCLDY    67  67  98 NE7       29.95R
LEXINGTON      PTCLDY    64  61  91 E7        29.97S
HOLDREGE       PTCLDY    60  58  92 NE6       29.97R
HEBRON         CLEAR     69  64  85 CALM      29.91R

...NEBRASKA PANHANDLE...

CITY           SKY/WX    TMP DP  RH WIND       PRES   REMARKS
CHADRON        PTCLDY    60  56  86 NE5       29.99R
ALLIANCE       MOCLDY    59  56  89 E3        30.00S
SCOTTSBLUFF    MOCLDY    63  56  78 CALM      30.00R
SIDNEY         MOCLDY    63  56  78 SW6       30.02F

...WESTERN AND NORTH CENTRAL NEBRASKA...

CITY           SKY/WX    TMP DP  RH WIND       PRES   REMARKS
VALENTINE      NOT AVBL
AINSWORTH      CLEAR     63  60  90 E5        30.00S
ONEILL         PTCLDY    63  60  90 CALM      29.99S
BROKEN BOW     CLEAR     65  60  84 NE3       29.99F
IMPERIAL       PTCLDY    63  54  72 NE9       29.98S
NORTH PLATTE   PTCLDY    58  55  90 CALM      29.99S
MCCOOK         PTCLDY    61  58  90 N5        29.97R

...EASTERN NEBRASKA...

CITY           SKY/WX    TMP DP  RH WIND       PRES   REMARKS
NORFOLK        CLEAR     65  61  87 E3        29.97R
TEKAMAH        PTCLDY    65  62  90 CALM      29.95R
COLUMBUS       CLEAR     64  57  77 CALM      29.97R
ALBION         CLEAR     64  59  83 E7        29.98R
OMAHA EPPLEY   PTCLDY    68  63  84 N6        29.94R
MILLARD        PTCLDY    73  62  68 E3        29.93R
LINCOLN        CLEAR     71  68  90 NE10      29.92R
NEBRASKA CITY  CLEAR     69  66  91 E6        29.91R
BEATRICE       PTCLDY    72  71  95 NE8       29.90R
FALLS CITY     CLEAR     69  65  86 SE5       29.88S

...NORTHERN KANSAS...

CITY           SKY/WX    TMP DP  RH WIND       PRES   REMARKS
GOODLAND       PTCLDY    65  58  78 W7        30.00R
HILL CITY      CLEAR     66  62  87 N5        29.94R
NORTON         SUNNY     61  54  77 CALM      29.94F
PHILLIPSBURG   CLEAR     70  61  73 N6        29.93S
SMITH CENTER   CLEAR     68  59  73 N5        29.93R
HAYS           CLEAR     70  61  73 CALM      29.92R
RUSSELL        CLEAR     70  67  90 S6        29.91R
CONCORDIA      PTCLDY    72  68  87 W6        29.90R
SALINA         CLEAR     71  67  87 S5        29.90R
TOPEKA         CLEAR     73  69  87 SE3       29.90R



USA.gov is the U.S. government's official web portal to all federal, state and local government web resources and services.